Overview Statistics Trail Chart Weather Telemetry Raw packets
 

This is the latest recevied weather packets stored in our database for station/object IZ7EXI-13. If no packets are shown the sender has not sent any weather packets the latest 10 day(s).

<< 45 46 47 48 49 >>
Time Temp. Humidity Pressure Rain* Wind** Luminosity Snow
1787826835 32.78° C 50% 1020.3 hPa - - - -
1787825934 32.78° C 48% 1020.2 hPa - - - -
1787825034 32.22° C 49% 1020.4 hPa - - - -
1787824134 32.78° C 42% 1020.3 hPa - - - -
1787823260 32.78° C 41% 1020.4 hPa - - - -
1787823234 32.78° C 41% 1020.4 hPa - - - -
1787822333 32.78° C 41% 1020.2 hPa - - - -
1787821433 32.78° C 43% 1019.8 hPa - - - -
1787820533 33.33° C 41% 1019.8 hPa - - - -
1787819633 33.33° C 39% 1019.9 hPa - - - -
1787818733 32.78° C 42% 1019.7 hPa - - - -
1787817832 31.67° C 46% 1020.3 hPa - - - -
1787816970 31.11° C 47% 1020.5 hPa - - - -
1787816932 31.11° C 47% 1020.5 hPa - - - -
1787816032 30.56° C 50% 1020.6 hPa - - - -
1787815132 30° C 52% 1020.7 hPa - - - -
1787814231 28.89° C 54% 1020.8 hPa - - - -
1787813331 28.33° C 56% 1021.1 hPa - - - -
1787812431 27.78° C 56% 1020.9 hPa - - - -
1787811531 26.67° C 57% 1020.6 hPa - - - -
1787810669 26.11° C 57% 1020.8 hPa - - - -
1787810631 26.11° C 57% 1020.8 hPa - - - -
1787809730 25.56° C 58% 1020.5 hPa - - - -
1787808830 25° C 59% 1020.5 hPa - - - -
1787807930 25° C 57% 1020.3 hPa - - - -

* Rain since midnight (hover to see other rain measurements)
** Current wind speed in m/s (hover to see current wind gust speed)